Location: Bettgenhausen
(50.6463°N, 7.5681°E)
Time: 08:23:31
(UTC+00:00)

STARLINK-1020 - Pass Details

Date: 27 February 2020
Orbit: 548 x 551 km, 53.0° (Epoch: 28 March)

Event Time Altitude Azimuth Distance (km) Brightness Sun altitude
Rises 17:56:53 0° 246° (WSW) 2,711 8.7 -8.7°
Reaches altitude 10° 17:59:06 10° 246° (WSW) 1,820 7.5 -9.1°
Maximum altitude 18:03:14 84° 159° (SSE) 558 3.6 -9.7°
Enters shadow 18:06:54 13° 71° (ENE) 1,628 5.4 -10.3°
